Regional Weather Roundup
Issued by NWS

Home | Current Version | Previous Version | Text Only | Print | Product List | Glossary Off
Versions: 1 2 3 4 5 6 7 8 9 10 11 12 13 14 15 16 17 18 19 20 21 22 23 24 25 26 27 28 29 30 31 32 33 34 35 36 37 38 39 40 41 42 43 44 45 46 47 48 49 50

000
ASUS45 KABQ 291110
RWRNM
NEW MEXICO REGIONAL WEATHER ROUNDUP
NATIONAL WEATHER SERVICE ALBUQUERQUE NM
500 AM MDT WED JUL 29 2015

NOTE: "FAIR" MEANS FEW OR NO CLOUDS BELOW 12,000 FEET AGL WITH NO
       SIGNIFICANT WEATHER OR OBSTRUCTIONS TO VISION.

      THIS PRODUCT IS RELEASED AS TWO VERSIONS.  ONE VERSION NEAR
      THE TOP OF THE HOUR CONTAINING PRELIMINARY DATA FROM ALBUQUERQUE
      AND OTHER STATIONS.  A FINAL VERSION WITH ADDITIONAL DATA IS
      ISSUED ABOUT 10 MINUTES AFTER THE HOUR.

NMZ501-503-504-510>518-291200-
NORTHWEST PLATEAU/NORTHCENTRAL MOUNTAINS

CITY           SKY/WX    TMP DP  RH WIND       PRES   REMARKS
FARMINGTON     CLEAR     60  39  45 N7        30.19R
LOS ALAMOS     CLOUDY    60  53  77 S9        30.37S
SANTA FE       CLOUDY    65  52  62 S13       30.31S
TAOS           PTCLDY    54  39  58 N6        30.37R
ANGEL FIRE     FAIR      49  47  94 NE5       30.48S

$$
NMZ402-403-502-505>509-291200-
WESTCENTRAL MOUNTAINS/SOUTHWEST MOUNTAINS

CITY           SKY/WX    TMP DP  RH WIND       PRES   REMARKS
GALLUP         PTCLDY    67  48  50 S9        30.29R
GRANTS         CLOUDY    63  55  75 CALM      30.32S
SILVER CITY      N/A     68  57  68 E5        30.27R

$$
NMZ407-409-411-412-291200-
SOUTHERN DESERTS

CITY           SKY/WX    TMP DP  RH WIND       PRES   REMARKS
LORDSBURG      FAIR      68  64  88 SE6       30.17R
DEMING         CLOUDY    73  60  63 S6        30.18S
LAS CRUCES     LGT RAIN  68  62  79 S3        30.21R
HOLLOMAN AFB   MOCLDY    69  67  93 NW2       30.15S
ALAMOGORDO     CLOUDY    68  64  88 NW6       30.18R
T OR C         CLOUDY    69  63  81 N3        30.20S

$$
NMZ519>523-291200-
CENTRAL VALLEYS/CENTRAL HIGHLANDS

CITY           SKY/WX    TMP DP  RH WIND       PRES   REMARKS
ALBUQUERQUE    CLOUDY    73  53  49 E9        30.24R
DOUBLE EAGLE   CLOUDY    67  56  67 SW7       30.28R
MORIARTY ARPT    N/A     61  55  82 CALM      30.34R
CLINES CORNERS CLOUDY    60  53  77 E5        30.36R
BELEN          CLOUDY    68  58  69 S8        30.23S
SOCORRO        FAIR      68  58  70 SW6       30.21S

$$
NMZ524>526-539-540-291200-
SOUTHCENTRAL MOUNTAINS

CITY           SKY/WX    TMP DP  RH WIND       PRES   REMARKS
RUIDOSO          N/A    N/A N/A N/A MISG        N/A

$$
NMZ527>531-291200-
NORTHEAST HIGHLANDS/NORTHEAST PLAINS

CITY           SKY/WX    TMP DP  RH WIND       PRES   REMARKS
LAS VEGAS      CLOUDY    57  55  93 N5        30.37F
RATON          MOCLDY    56  52  86 CALM      30.33S
CLAYTON        PTCLDY    64  57  78 NW8       30.21S

$$
NMZ532>537-291200-
EASTCENTRAL PLAINS

CITY           SKY/WX    TMP DP  RH WIND       PRES   REMARKS
TUCUMCARI      MOCLDY    66  64  93 W5        30.19R
CANNON AFB     MOCLDY    67  64  93 NW3       30.20R
CLOVIS AIRPORT PTCLDY    64  63  94 NW6       30.21R

$$
NMZ028-029-538-291200-
SOUTHEAST PLAINS

CITY           SKY/WX    TMP DP  RH WIND       PRES   REMARKS
ROSWELL        CLOUDY    71  66  84 NE6       30.13R
ARTESIA        MOCLDY    70  68  94 E9        30.15R
CARLSBAD       MOCLDY    72  67  84 NE8       30.11S
HOBBS          CLEAR     70  61  73 N10       30.14F


$$


USA.gov is the U.S. government's official web portal to all federal, state and local government web resources and services.